Find Starlink 32462

NORAD ID: 62129 Int'l Des: 2024-222 Owner: SPXS Country: US Constellation: starlink operational
LEOCIRCULAR

当前视图

正在加载3D地球...

About Starlink 32462

Starlink 32462 (NORAD 62129) is a starlink constellation satellite (v2 mini) launched Nov 27, 2024 by SPXS of US. It operates in LEO, CIRCULAR orbit with a mass of 730.00 kg.

即将过境

Passes for default location (London). Set your location on the main map for personalized predictions.

高度历史

Loading altitude history...

两行轨道根数

1 62129U 24222R 26262.99342544 .00017011 00000-0 62589-3 0 9993
2 62129 43.0029 115.5353 0001786 274.2972 85.7675 15.27600049102508
Epoch: Sep 19, 2026 • Age: 14 hours

当前状态

高度 484.1 km
远地点 / 近地点 N/A
速度 7.63 km/s
星下点 28.89°N, 63.68°W
发射日期 Nov 27, 2024
运行时间 1.8 years
类型 internet

技术详情

分类 Payload
质量 730.00 kg
干质量 700.00 kg
长度 0.30 m
跨度 29.00 m
形状 ? Box + pan
制造商 SPXS
平台类型 Starlink V2M
阶段状态 In Orbit
所有者/国家 SPXS/US

Most Searched